Flag for Japan Weather past 2 weeks in Yokohama, Japan

Now
59 °F

Clear.


Feels Like: 57 °F
Forecast: 51 / 68 °F
Wind: 9 mph from Northwest

Location: Tokyo International Airport

Current Time: Apr 1, 2015 at 6:14:37 AM

Latest Report: Apr 1, 2015 at 5:30 AM


Visibility: 4 mi

Pressure: 29.86 "Hg

Humidity: 72%

Dew point: 50 °F

Location of YokohamaLocation

Historic Weather in Yokohama — Graph

°F

Yokohama temperature yesterday

Maximum temperature yesterday: 70 °F (at 11:01 AM)
Minimum temperature yesterday: 52 °F (at 5:00 AM)
Average temperature yesterday: 61 °F

Past Weeks' High & Low Weather Summary

 TemperatureHumidityPressure
High70 °F (Mar 31, 11:01 AM)100% (Mar 18, 7:30 AM)30.45 "Hg (Mar 18, 7:30 AM)
Low39 °F (Mar 24, 4:30 AM)17% (Mar 24, 2:00 PM)29.65 "Hg (Mar 19, 2:00 PM)
Average54 °F62%30.03 "Hg
* Reported Mar 17 5:00 AM — Apr 1 5:00 AM, Yokohama, Weather by CustomWeather, © 2015

Note: Actual official high and low records may vary slightly from our data, if they occured in-between our weather recording intervals... More about our weather records

Advertising

Yokohama weather history for previous 24 hours

 ConditionsComfort  
Time TempWeatherWind HumidityBarometerVisibility
5:00 AM
Wed, Apr 1
61 °FClear.6 mph68%29.86 "Hg10 mi
4:30 AM59 °FClear.6 mph72%29.86 "Hg10 mi
4:00 AM57 °FClear.7 mph77%29.86 "Hg10 mi
3:30 AM57 °FClear.6 mph77%29.86 "Hg10 mi
3:00 AM59 °FClear.9 mph72%29.89 "Hg10 mi
2:30 AM61 °FClear.13 mph72%29.89 "Hg10 mi
2:00 AM61 °FClear.16 mph77%29.89 "Hg10 mi
1:30 AM61 °FClear.17 mph72%29.89 "Hg10 mi
1:00 AM61 °FPassing clouds.16 mph72%29.92 "HgN/A
12:30 AM61 °FClear.15 mph72%29.92 "Hg10 mi
12:00 AM61 °FPassing clouds.15 mph68%29.92 "HgN/A
11:30 PM
Tue, Mar 31
61 °FClear.20 mph68%29.92 "Hg10 mi
11:00 PM61 °FClear.20 mph68%29.95 "Hg10 mi
10:30 PM61 °FClear.17 mph68%29.95 "Hg10 mi
10:00 PM61 °FClear.17 mph63%29.95 "Hg10 mi
9:30 PM61 °FClear.22 mph59%29.95 "Hg10 mi
9:00 PM61 °FClear.25 mph59%29.95 "Hg10 mi
8:48 PM63 °FClear.20 mph59%29.95 "Hg10 mi
8:30 PM61 °FClear.20 mph68%29.98 "Hg10 mi
8:00 PM61 °FClear.21 mph68%29.98 "Hg10 mi
7:30 PM61 °FClear.18 mph72%29.95 "Hg10 mi
7:00 PM61 °FClear.24 mph72%29.95 "Hg10 mi
6:45 PM61 °FClear.23 mph72%29.95 "Hg10 mi
6:30 PM61 °FClear.26 mph72%29.95 "Hg10 mi
6:00 PM63 °FScattered clouds.25 mph64%29.95 "HgN/A
5:30 PM63 °FScattered clouds.24 mph59%29.95 "HgN/A
5:00 PM63 °FPassing clouds.21 mph73%29.95 "HgN/A
4:30 PM64 °FPassing clouds.25 mph68%29.98 "HgN/A
4:00 PM66 °FPassing clouds.22 mph64%29.98 "HgN/A
3:30 PM66 °FPassing clouds.22 mph60%29.98 "HgN/A
3:00 PM66 °FPassing clouds.22 mph64%29.98 "HgN/A
2:30 PM66 °FPassing clouds.24 mph64%29.98 "HgN/A
2:00 PM66 °FScattered clouds.24 mph64%30.01 "HgN/A
1:30 PM68 °FPassing clouds.23 mph60%30.01 "HgN/A
1:00 PM68 °FPassing clouds.24 mph60%30.04 "HgN/A
12:30 PM68 °FPassing clouds.22 mph60%30.04 "HgN/A
11:30 AM68 °FPassing clouds.25 mph53%30.07 "HgN/A
11:01 AM70 °FPassing clouds.21 mph50%30.09 "HgN/A
10:30 AM68 °FPassing clouds.22 mph46%30.12 "HgN/A
10:00 AM68 °FPassing clouds.20 mph49%30.12 "HgN/A
9:30 AM66 °FPassing clouds.18 mph52%30.12 "HgN/A
9:00 AM64 °FPassing clouds.15 mph60%30.12 "HgN/A
8:30 AM57 °FFog.3 mph77%30.15 "HgN/A
8:00 AM57 °FFog.2 mph72%30.15 "Hg4 mi
7:30 AM55 °FPassing clouds.3 mph72%30.15 "Hg4 mi
7:00 AM55 °FPassing clouds.6 mph72%30.15 "Hg4 mi
6:30 AM54 °FPassing clouds.6 mph77%30.15 "Hg4 mi
6:00 AM52 °FFog.6 mph82%30.15 "Hg4 mi
Weather by CustomWeather, © 2015

See weather overviewHow to use our weather pages